User: anonymous   Login
Location: Unspecified
(0.0000°N, 0.0000°E)
Time: 19:24:05
(UTC+00:00)
Language:

AIST 2D - Orbit

View from above orbital plane
View from above orbital plane
View from above satellite
View from above satellite

Ground track
Ground track

The orbit data is extracted from the following two-line orbital elements,

1 41465U 16026B   18140.37776932  .00001557  00000-0  51678-4 0  9992
2 41465  97.2251  40.6321 0013393  93.8163 357.8269 15.32634118115082
Epoch (UTC): 20 May 2018 09:03:59
Eccentricity: 0.0013393
inclination: 97.2251°
perigee height: 459 km
apogee height: 477 km
right ascension of ascending node: 40.6321°
argument of perigee: 93.8163°
revolutions per day: 15.32634118
mean anomaly at epoch: 357.8269°
orbit number at epoch: 11508

The dashed part of the orbit path shows where the satellite is in the earth's shadow,  

DLR